Погода в Виноградном

Россия / Республика Крым     45°17′35″N   35°50′45″E
темп.,
°C
ветер,
м/с
пор.,
м/с
влажн.,
%
обл.,
%
осадки,
мм/ч
давл.,
гПа
погр.,
м
15 апреля, чт
чт1500:00+8ю612930 0.0 1015334
03:00+8ю5109567 0.0 1015263
06:00+8ю5109518 0.3 1015264
09:00+12ююз687914 0.9 1015536
12:00+14ююз79638 0.1 1015888
15:00+14юз666042 0.1 1016965
18:00+12юз34669 0.0 1017516
21:00+7ююз2292100 0.0 101834
16 апреля, пт
пт1600:00+7юз118848 0.0 101818
03:00+8з128120 0.0 1018102
06:00+5ссз22854 0.0 101818
09:00+9ююв22686 0.0 1019436
12:00+13ююз556146 0.0 10191076
15:00+12ююз5463100 0.0 1019844
18:00+11ююз677029 0.0 1019347
21:00+9зсз48659 0.0 1020482
17 апреля, сб
сб1700:00+6зсз510840 0.0 1021355
03:00+5зсз48882 0.0 1022179
06:00+4сз33906 0.0 102245
09:00+9ссз2267100 0.0 1023638
12:00+12с2251100 0.0 10231226
15:00+12ссв1254100 0.0 1023917
18:00+11всв236245 0.0 1022630
21:00+7вюв2277100 0.0 102234
18 апреля, вс
вс1800:00+6в3677100 0.0 1020116
03:00+7всв3869100 0.0 1019193
06:00+8в41077100 0.3 1018320
09:00+8всв4684100 0.9 1018351
12:00+10всв4685100 0.8 1018417
15:00+10св578797 0.9 1017443
18:00+10всв578977 0.0 1018423
21:00+8всв3897100 0.0 1018259
19 апреля, пн
пн1900:00+9св2695100 0.0 1017223
03:00+7св2397100 0.0 101762
06:00+8всв4898100 0.0 1015216
09:00+10в61093100 0.1 1014351
12:00+11в4794100 0.8 1013392
15:00+15в4678100 0.9 1011596
18:00+13в5990100 0.1 1009394
21:00+12в61197100 1.0 1007330